Погода в Кутулике

Россия / Иркутская область     53°20′36″N   102°47′38″E
темп.,
°C
ветер,
м/с
пор.,
м/с
влажн.,
%
обл.,
%
осадки,
мм/ч
давл.,
гПа
погр.,
м
4 марта, чт
чт423:00−21с349298 0.0 102741
02:00−25ссз238774 0.0 103020
05:00−27ссз228438 0.0 103219
08:00−28с128564 0.0 103619
11:00−20в118593 0.0 1035176
14:00−16вюв118389 0.0 1034396
17:00−16юв3490100 0.0 1034295
20:00−21вюв239267 0.0 103720
5 марта, пт
пт523:00−21юв34920 0.0 103750
02:00−21юв48960 0.0 1037138
05:00−22юв510940 0.0 1035172
08:00−21юв610956 0.0 1034188
11:00−16юв599392 0.0 1030287
14:00−11юв6109179 0.0 1026376
17:00−9юв6108973 0.0 1023335
20:00−13юв5129169 0.0 1024218
6 марта, сб
сб623:00−15юв5109333 0.0 1025200
02:00−15юв359567 0.0 1026153
05:00−15юв2294100 0.0 102720
08:00−16ююв229095 0.0 103021
11:00−10ю348943 0.0 1028152
14:00−5ююв469033 0.0 1026211
17:00−3юв58900 0.0 1023251
20:00−6ююв410940 0.0 1024180
7 марта, вс
вс723:00−7ююв459117 0.0 102388
02:00−8ю348258 0.0 102341
05:00−9юв1277100 0.0 102121
08:00−10ююв3478100 0.0 102235
11:00−5ю468267 0.0 1019159
14:00−1ю468857 0.0 1018187
17:000ю129156 0.0 1018144
20:00−5юв238647 0.0 102121
8 марта, пн
пн823:00−5зюз1295100 0.0 102223
02:00−6ссв1196100 0.0 102321
05:00−8сз019892 0.0 102421
08:00−9юв239663 0.0 102521
11:00−4ююв459780 0.0 1021308
14:00−2ююв459984 0.0 1019264
17:00−1юв349351 0.0 1017210
20:00−4ююв339254 0.0 101928